Wind_Speed
35 34 34 35 35 35 36 37 37 36 36 34 35 35 35 37 38 38 39 39 39 39 40 41 43 43 43 43 44 46 47 48 47 47 48 49 50 50 49 50 50 50 50 52
35 34 34 35 34 35 36 35 35 35 34 34 35 35 36 37 38 38 38 39 39 40 39 40 41 42 42 43 45 45 46 46 45 45 46 47 49 49 50 51 51 52 52 50
35 34 35 34 33 34 34 34 34 34 34 34 35 35 36 37 37 37 38 39 40 39 39 40 40 40 41 43 43 44 44 44 44 44 44 45 47 49 50 51 52 52 52 52
36 35 35 33 32 33 33 33 34 35 35 35 35 34 35 36 37 37 37 38 39 40 40 39 39 39 40 40 41 42 42 42 43 43 43 44 45 46 47 49 50 51 52 52
36 37 36 32 32 33 34 33 34 35 35 35 36 35 35 36 37 37 37 38 38 39 40 39 39 39 39 39 39 39 40 41 41 41 41 41 42 43 44 45 46 47 49 49
35 37 36 34 33 34 34 34 33 34 34 35 35 36 36 36 36 36 37 37 37 38 38 38 38 38 37 37 38 38 38 38 38 38 38 39 39 40 41 42 43 44 45 46
33 34 34 33 33 33 33 33 33 33 34 34 34 35 36 36 36 37 37 37 37 37 37 37 36 36 36 36 37 36 36 36 36 36 37 37 38 38 39 41 42 43 43 44
30 31 32 32 32 33 33 34 34 34 33 33 33 34 35 36 36 35 36 36 36 35 36 36 35 35 34 35 34 34 34 35 35 36 36 37 37 38 39 40 42 42 42 42
29 30 32 31 32 32 33 33 34 34 33 33 33 34 35 35 35 34 35 35 35 35 35 35 34 33 33 32 32 31 32 32 34 35 35 36 36 37 38 38 39 40 40 40
31 31 31 31 31 31 32 33 33 33 33 33 34 34 34 35 35 34 34 34 33 34 34 34 33 32 31 31 31 31 32 33 33 33 33 34 35 36 36 36 36 37 37 38
30 30 30 30 30 30 31 31 32 32 32 32 32 33 33 34 34 33 32 32 32 32 32 31 31 31 31 31 30 31 32 32 32 32 32 33 34 34 35 35 35 36 36 36
29 29 30 30 30 30 30 30 30 30 30 30 31 31 32 32 31 31 32 31 31 31 30 30 29 29 29 29 30 30 31 31 31 31 31 32 33 33 33 33 33 34 34 35
30 30 31 31 30 30 30 30 30 30 30 30 31 31 31 30 30 29 30 30 29 28 28 28 27 27 27 28 29 29 29 29 29 30 30 30 30 30 31 31 32 33 33 34
30 30 31 30 30 30 31 31 31 31 31 31 31 30 30 29 29 28 28 28 27 27 26 26 26 26 27 27 27 28 28 29 29 29 29 29 28 29 29 30 30 31 31 33
29 29 30 30 30 30 30 30 30 30 30 30 30 30 29 29 29 29 28 28 28 27 27 27 26 26 26 26 26 27 27 28 28 28 28 28 28 28 27 28 28 30 31 31
29 29 29 29 29 29 29 29 29 29 29 29 29 29 28 28 28 28 28 28 28 28 27 27 26 25 26 26 26 26 26 26 26 26 26 27 26 26 26 27 27 28 29 30
29 30 30 29 29 28 28 28 28 28 28 28 28 27 27 27 27 27 28 28 28 27 27 26 26 25 26 26 26 26 26 25 26 26 26 25 25 25 25 26 27 27 28 28
30 30 30 30 29 28 27 27 27 27 28 28 27 27 26 26 27 27 27 27 27 27 26 26 25 25 26 26 26 25 25 26 26 26 25 25 25 25 25 25 25 26 26 26
30 30 29 28 27 27 26 26 26 27 27 27 27 27 27 27 27 27 27 26 26 26 26 25 25 25 25 25 25 25 26 26 26 26 25 25 24 24 24 24 24 25 25 25
29 29 28 27 27 26 26 26 26 27 27 28 28 28 27 27 27 27 27 26 26 26 25 25 24 24 25 25 25 25 25 24 24 24 24 24 24 23 23 23 23 23 23 24
29 28 27 27 27 26 27 27 27 28 28 28 28 27 27 27 27 27 27 27 27 26 25 25 24 25 25 24 24 24 23 23 23 23 23 23 23 23 23 23 23 23 23 23
28 28 28 27 27 27 28 28 28 27 27 27 27 27 27 27 26 26 26 26 26 25 25 25 25 24 24 23 23 23 23 23 23 23 23 23 23 23 23 23 24 24 23 23
28 28 28 28 27 27 28 27 27 27 27 27 28 27 27 27 26 26 26 26 25 25 25 25 25 24 23 23 22 22 22 22 23 23 23 23 23 23 23 23 24 24 24 23
28 28 28 28 28 28 28 28 29 29 29 29 28 28 27 27 26 26 26 26 25 25 24 24 24 24 23 23 23 23 22 23 23 23 23 23 23 24 24 24 24 24 24 24
29 29 30 29 29 29 29 29 30 30 29 29 28 28 28 27 26 26 26 25 25 24 24 24 24 24 24 23 23 23 23 22 22 23 23 23 24 24 24 24 24 23 24 24
29 29 30 30 30 30 30 30 30 30 29 29 29 28 27 27 26 25 25 25 24 24 24 24 24 23 23 23 23 22 22 22 22 22 23 23 23 24 24 24 23 23 23 23
29 29 30 30 30 30 31 30 30 30 29 28 28 27 26 25 25 24 24 23 23 23 23 23 23 23 22 22 22 22 22 22 22 21 22 22 22 23 23 23 23 23 23 23
Wind_Direction
284 284 282 281 282 281 282 281 281 282 281 282 282 282 282 281 282 283 282 281 280 280 279 278 276 272 270 269 269 269 268 268 268 267 265 264 263 262 262 261 261 259 259 260
283 283 283 282 282 282 282 282 281 281 281 282 283 282 281 282 283 283 283 282 281 281 280 280 278 275 271 270 271 271 269 269 268 267 265 263 263 262 262 262 261 261 261 261
283 282 283 283 283 283 283 283 281 281 283 283 283 282 283 284 285 284 283 283 283 283 283 281 279 277 275 273 271 270 269 268 268 268 267 266 265 264 264 263 262 262 262 262
286 285 284 286 285 284 284 283 282 283 284 285 284 284 285 286 286 286 285 284 284 284 283 281 280 279 277 276 273 272 269 268 269 268 267 267 266 266 266 265 263 262 262 263
286 286 286 286 287 286 286 285 284 285 285 286 285 284 284 286 287 288 288 287 286 285 283 282 282 282 279 276 274 272 270 269 269 269 268 267 267 267 267 266 265 263 263 262
286 285 286 288 288 288 287 287 287 285 286 287 286 285 284 285 286 287 289 290 289 287 284 284 283 281 278 276 273 272 271 269 268 268 268 268 268 268 268 267 266 264 264 264
288 287 288 289 290 288 287 288 288 287 287 287 286 287 286 286 287 288 289 290 290 288 286 286 284 281 278 275 273 272 271 270 269 268 269 270 270 270 269 268 267 265 264 264
290 289 290 290 289 287 286 287 288 289 287 287 287 287 287 287 288 289 291 292 290 289 288 286 285 281 278 275 273 272 271 271 270 270 271 272 271 270 270 269 268 266 265 264
290 291 291 290 289 286 286 287 288 288 287 287 287 287 288 288 289 289 292 292 290 288 287 287 285 281 278 276 274 273 273 273 272 273 272 272 272 270 269 268 268 267 265 264
288 290 291 290 288 286 287 288 289 288 287 287 287 288 288 289 289 289 290 290 289 289 287 286 284 281 278 276 274 273 274 275 275 275 274 273 273 271 270 269 268 267 266 265
290 292 290 289 288 288 286 285 287 288 287 288 289 289 289 289 289 289 290 290 289 289 288 287 284 282 279 277 274 273 274 275 275 275 275 274 275 274 272 269 267 267 267 267
294 295 294 291 290 289 288 286 287 289 290 290 290 290 290 290 289 290 290 291 290 290 289 287 285 283 281 277 274 274 274 274 274 274 275 275 276 275 273 271 269 269 268 268
295 295 295 293 291 290 288 288 288 290 290 290 291 292 292 291 291 291 292 293 293 293 291 288 286 284 282 278 275 275 275 275 276 277 277 278 277 275 272 271 270 269 269 270
295 296 296 294 291 290 289 289 290 290 290 291 291 292 292 291 291 291 292 293 293 294 293 291 288 286 283 281 279 278 278 278 279 280 280 280 279 277 274 273 272 271 270 271
297 298 298 296 294 292 291 290 290 290 290 290 290 291 291 291 291 291 292 292 292 293 293 292 289 285 283 282 281 281 280 280 281 281 281 281 279 277 275 274 272 272 273 275
300 301 300 299 298 296 294 293 292 292 291 291 291 291 291 291 291 291 293 293 293 291 291 291 289 285 284 283 283 282 281 281 281 281 281 280 279 277 276 275 275 275 277 278
303 303 302 300 300 299 298 295 294 293 292 293 293 292 292 291 291 292 292 292 292 292 291 289 287 284 284 283 283 283 281 281 282 282 281 280 279 277 277 278 278 278 280 281
305 305 304 302 301 300 299 297 294 293 294 295 294 293 292 292 292 292 292 292 292 291 291 289 286 284 284 284 283 282 282 282 283 283 281 281 278 278 278 278 280 281 283 284
305 305 305 304 302 300 299 298 296 296 296 296 295 294 292 293 293 294 293 292 292 291 290 288 286 284 284 284 283 283 283 284 284 283 282 280 280 280 282 282 282 284 285 285
305 305 305 304 303 300 299 298 297 297 297 297 296 295 293 293 293 293 293 293 293 292 290 288 285 285 286 286 285 283 283 283 284 284 283 282 282 283 284 283 283 284 285 287
305 305 304 303 301 300 300 300 299 298 298 298 297 296 294 293 293 293 293 293 293 293 291 289 286 285 285 286 285 283 283 283 282 282 281 281 282 283 282 282 282 282 283 285
304 304 302 301 299 299 299 300 300 299 299 298 297 297 295 293 292 292 292 292 292 291 290 289 287 285 285 285 285 284 284 284 282 281 280 281 281 281 281 281 282 283 283 283
304 304 303 302 301 300 300 300 300 300 300 299 298 297 295 293 292 292 292 292 291 291 290 288 287 286 285 285 285 285 284 284 283 281 280 280 280 281 281 282 283 284 283 282
304 304 304 303 302 301 301 300 300 299 299 298 297 296 295 293 291 291 291 291 290 290 289 288 286 285 286 286 286 285 285 285 284 282 280 279 280 281 282 284 284 284 283 282
306 305 304 303 302 301 300 300 299 299 299 298 297 296 295 293 292 291 292 291 289 289 289 289 288 287 286 286 285 284 284 284 283 283 281 280 280 281 282 283 284 285 284 284
309 308 307 305 303 301 300 300 299 298 297 297 296 295 294 293 293 293 292 290 289 288 288 289 289 287 286 285 285 284 284 284 285 284 284 283 283 283 283 283 283 284 284 283
312 311 310 309 306 304 303 302 300 298 297 296 295 295 294 293 293 293 293 291 289 289 288 288 287 286 285 285 285 285 286 286 286 286 286 286 286 286 285 285 285 284 283 282
Height
5557 5555 5552 5551 5550 5548 5545 5543 5541 5541 5539 5539 5535 5533 5531 5528 5526 5524 5522 5520 5517 5515 5513 5512 5510 5508 5507 5506 5505 5503 5502 5501 5501 5500 5500 5500 5500 5500 5500 5500 5500 5500 5501 5502
5547 5545 5542 5540 5540 5537 5535 5533 5531 5529 5528 5527 5524 5522 5519 5517 5515 5513 5510 5508 5505 5503 5501 5499 5497 5495 5494 5493 5491 5490 5488 5487 5486 5486 5485 5485 5485 5485 5485 5485 5485 5485 5486 5486
5536 5534 5531 5531 5531 5527 5525 5523 5521 5518 5518 5515 5513 5510 5508 5506 5504 5501 5499 5496 5494 5491 5488 5486 5484 5483 5481 5479 5478 5476 5475 5474 5473 5472 5472 5471 5471 5471 5470 5470 5470 5470 5470 5471
5524 5523 5521 5524 5520 5517 5514 5513 5510 5508 5507 5504 5502 5500 5498 5495 5492 5490 5487 5485 5482 5479 5477 5474 5472 5470 5468 5466 5465 5463 5462 5461 5461 5460 5459 5458 5457 5456 5456 5455 5455 5455 5455 5456
5514 5511 5510 5512 5509 5506 5503 5503 5501 5498 5496 5494 5491 5489 5487 5484 5481 5479 5476 5473 5471 5468 5465 5463 5460 5458 5456 5454 5452 5451 5450 5449 5448 5447 5447 5445 5444 5443 5442 5442 5441 5441 5441 5442
5504 5501 5499 5502 5499 5495 5493 5492 5491 5487 5485 5483 5480 5478 5477 5474 5471 5468 5465 5462 5458 5455 5453 5450 5448 5445 5443 5441 5440 5439 5438 5438 5436 5436 5435 5434 5432 5431 5430 5429 5428 5428 5428 5428
5495 5491 5490 5491 5488 5485 5485 5483 5480 5477 5474 5472 5469 5467 5465 5462 5459 5456 5453 5450 5446 5443 5440 5438 5435 5432 5430 5429 5428 5427 5427 5426 5425 5425 5424 5422 5421 5420 5418 5417 5416 5416 5416 5416
5486 5483 5484 5481 5478 5476 5474 5471 5469 5466 5464 5461 5459 5456 5454 5451 5448 5445 5442 5438 5434 5431 5428 5425 5423 5420 5419 5417 5417 5416 5416 5415 5414 5413 5412 5411 5409 5408 5406 5405 5404 5403 5403 5403
5479 5478 5474 5471 5468 5466 5464 5461 5459 5456 5454 5451 5449 5446 5443 5440 5437 5434 5431 5427 5423 5420 5417 5414 5411 5410 5408 5407 5406 5405 5405 5404 5403 5402 5401 5400 5398 5397 5395 5393 5392 5391 5391 5391
5470 5468 5465 5462 5459 5457 5454 5452 5449 5446 5444 5441 5438 5436 5433 5430 5427 5423 5420 5416 5412 5409 5406 5404 5401 5399 5398 5397 5396 5395 5395 5394 5393 5391 5390 5388 5387 5385 5384 5382 5381 5381 5380 5380
5461 5460 5456 5454 5450 5448 5445 5442 5440 5437 5434 5431 5429 5426 5423 5420 5416 5413 5410 5406 5403 5400 5397 5394 5392 5390 5388 5387 5386 5385 5385 5384 5382 5381 5379 5378 5376 5375 5373 5372 5371 5370 5370 5369
5453 5450 5447 5445 5441 5438 5436 5433 5431 5428 5425 5422 5419 5416 5413 5410 5407 5404 5401 5397 5394 5390 5387 5385 5382 5380 5379 5377 5376 5376 5375 5373 5372 5371 5369 5367 5366 5364 5362 5361 5360 5359 5358 5358
5444 5441 5438 5435 5432 5429 5427 5424 5422 5419 5416 5413 5410 5407 5404 5400 5397 5394 5391 5388 5385 5382 5379 5376 5374 5372 5370 5368 5367 5366 5365 5364 5363 5361 5360 5358 5356 5354 5352 5351 5350 5349 5348 5347
5435 5432 5429 5426 5423 5420 5417 5415 5412 5410 5407 5404 5401 5398 5394 5391 5389 5385 5382 5379 5376 5373 5371 5368 5365 5363 5362 5360 5359 5358 5356 5355 5354 5352 5350 5348 5347 5345 5343 5342 5340 5339 5338 5336
5428 5424 5421 5417 5414 5411 5408 5405 5403 5400 5398 5395 5392 5389 5386 5383 5380 5377 5374 5370 5368 5365 5363 5360 5358 5356 5354 5352 5351 5349 5348 5346 5345 5343 5341 5339 5338 5336 5334 5333 5331 5330 5328 5327
5419 5416 5412 5409 5406 5402 5399 5396 5394 5391 5389 5386 5383 5380 5377 5374 5371 5368 5365 5362 5360 5357 5355 5352 5350 5348 5346 5344 5343 5341 5340 5338 5336 5335 5333 5331 5329 5327 5325 5324 5323 5321 5319 5317
5411 5407 5404 5400 5397 5394 5391 5388 5385 5383 5380 5377 5375 5372 5369 5366 5363 5360 5357 5354 5351 5349 5346 5344 5342 5340 5338 5336 5335 5333 5331 5330 5328 5326 5324 5323 5321 5319 5317 5316 5314 5312 5310 5308
5402 5398 5394 5391 5388 5385 5382 5380 5377 5374 5371 5369 5366 5363 5360 5358 5355 5352 5349 5346 5343 5340 5338 5336 5334 5332 5330 5328 5327 5325 5324 5322 5320 5318 5316 5315 5313 5311 5310 5308 5306 5304 5302 5299
5394 5390 5386 5382 5379 5376 5374 5371 5369 5366 5363 5360 5357 5354 5352 5349 5346 5343 5341 5338 5335 5332 5330 5328 5326 5324 5322 5321 5319 5317 5316 5314 5312 5310 5308 5307 5305 5303 5302 5300 5298 5296 5293 5291
5386 5382 5378 5375 5371 5368 5366 5363 5360 5358 5355 5352 5349 5346 5343 5340 5337 5335 5332 5330 5327 5324 5322 5320 5318 5316 5315 5313 5311 5309 5307 5306 5304 5302 5300 5299 5297 5296 5294 5292 5290 5288 5286 5284
5378 5374 5370 5367 5364 5361 5358 5355 5352 5349 5346 5343 5340 5337 5335 5332 5329 5327 5324 5322 5319 5316 5314 5312 5310 5308 5306 5305 5303 5301 5299 5298 5296 5295 5293 5291 5290 5288 5286 5284 5283 5281 5279 5276
5369 5366 5362 5359 5356 5353 5350 5347 5344 5341 5338 5335 5332 5329 5326 5324 5321 5318 5316 5314 5311 5308 5306 5304 5302 5300 5298 5297 5295 5293 5291 5290 5288 5287 5285 5284 5282 5280 5279 5277 5275 5273 5271 5269
5361 5357 5354 5350 5347 5344 5341 5338 5335 5332 5329 5326 5323 5320 5318 5315 5313 5310 5308 5306 5303 5301 5298 5296 5294 5292 5291 5289 5287 5285 5284 5282 5281 5279 5277 5276 5274 5273 5271 5269 5267 5265 5263 5261
5352 5349 5345 5342 5339 5336 5333 5330 5326 5323 5320 5317 5315 5312 5309 5306 5304 5302 5299 5297 5295 5293 5291 5288 5287 5285 5283 5281 5279 5278 5276 5274 5272 5271 5269 5268 5266 5265 5263 5261 5259 5257 5256 5254
5344 5340 5336 5333 5329 5326 5323 5320 5317 5314 5311 5308 5305 5302 5300 5297 5295 5293 5291 5288 5286 5284 5282 5280 5278 5277 5275 5273 5272 5270 5268 5266 5265 5263 5261 5260 5258 5257 5255 5253 5251 5250 5248 5246
5336 5331 5327 5323 5320 5316 5313 5310 5307 5304 5301 5299 5296 5293 5291 5288 5286 5284 5282 5280 5278 5276 5274 5272 5270 5268 5267 5265 5263 5262 5260 5259 5257 5255 5254 5252 5250 5249 5247 5245 5244 5242 5240 5239
5328 5323 5319 5315 5311 5307 5303 5300 5297 5294 5291 5289 5287 5284 5282 5279 5277 5275 5273 5271 5269 5267 5265 5263 5262 5260 5259 5257 5256 5254 5253 5251 5249 5248 5246 5244 5243 5241 5239 5238 5236 5234 5233 5231